This demonstration page uses our WeatherBlox Daily Observations layout. Learn more.

Left ArrowRight Arrow

Hourly Observations for May 28, 2021

Temp ( °F °C ) Dew Point ( °F °C ) Humidity (%) Winds ( mph kmh ) Pressure ( in mb ) Visibility ( mi km ) Precip ( " mm )
12:53 am 00:53 Clear 73 22.8 47 8.3 40 40 NW 6 9 29.96 1015 10 16 0.00 0.00
1:53 am 01:53 Clear 71 21.7 46 7.8 41 41 N 6 9 29.96 1015 10 16 0.00 0.00
2:53 am 02:53 Clear 69 20.6 47 8.3 45 45 N 6 9 29.96 1015 10 16 0.00 0.00
3:53 am 03:53 Clear 67 19.4 47 8.3 49 49 N 5 7 29.96 1015 10 16 0.00 0.00
4:53 am 04:53 Clear 67 19.4 47 8.3 49 49 NW 5 7 29.97 1015 10 16 0.00 0.00
5:53 am 05:53 Sunny 67 19.4 46 7.8 47 47 NNW 7 11 29.98 1015 10 16 0.00 0.00
6:53 am 06:53 Sunny 70 21.1 46 7.8 42 42 N 8 13 29.99 1016 10 16 0.00 0.00
7:53 am 07:53 Sunny 73 22.8 46 7.8 38 38 N 10 17 30.00 1016 10 16 0.00 0.00
8:53 am 08:53 Sunny 74 23.3 46 7.8 37 37 NNW 12 19 29.99 1016 10 16 0.00 0.00
9:53 am 09:53 Sunny 78 25.6 47 8.3 33 33 NW 10 17 29.98 1015 10 16 0.00 0.00
10:53 am 10:53 Sunny 82 27.8 47 8.3 29 29 N 10 17 29.96 1015 10 16 0.00 0.00
11:53 am 11:53 Sunny 84 28.9 46 7.8 27 27 NNW 9 15 29.94 1014 10 16 0.00 0.00
12:53 pm 12:53 Sunny 87 30.6 44 6.7 22 22 NNW 8 13 29.92 1013 10 16 0.00 0.00
1:53 pm 13:53 Sunny 89 31.7 42 5.6 19 19 NNW 7 11 29.89 1012 10 16 0.00 0.00
2:53 pm 14:53 Sunny 91 32.8 39 3.9 16 16 VRB 6 9 29.87 1012 10 16 0.00 0.00
3:53 pm 15:53 Sunny 92 33.3 37 2.8 14 14 N 6 9 29.84 1011 10 16 0.00 0.00
4:53 pm 16:53 Sunny 93 33.9 32 0 11 11 VRB 3 6 29.82 1010 10 16 0.00 0.00
5:53 pm 17:53 Sunny 93 33.9 34 1.1 12 12 S 8 13 29.81 1010 10 16 0.00 0.00
6:53 pm 18:53 Sunny 92 33.3 34 1.1 13 13 Calm 29.80 1009 10 16 0.00 0.00
7:53 pm 19:53 Sunny 88 31.1 34 1.1 15 15 SE 5 7 29.79 1009 10 16 0.00 0.00
8:53 pm 20:53 Clear 77 25 39 3.9 26 26 Calm 29.80 1009 10 16 0.00 0.00
9:53 pm 21:53 Clear 74 23.3 40 4.4 29 29 Calm 29.80 1009 10 16 0.00 0.00

Powered by AerisWeather